sat.trackr.live / text

‹ back to catalog

STARLINK-32733

NORAD 62477 · 2024-254R

PAYLOAD ACTIVE UNKNOWN

§ Identity

Operator
Country
US
Launch date
2024-12-31
Launch site
AFETR
Launch vehicle
Mass (kg)
RCS (m²)

Purposes: comms

External: N2YO · Heavens-Above · Gunter

§ Orbital elements

Epoch: 2026-05-25T04:01:00.951168Z

Period
94.27 min
Inclination
43.0011°
Eccentricity
0.0001957
Mean motion
15.27597649 rev/d
Perigee alt
481.7 km
Apogee alt
484.3 km
Semi-major
6,861.1 km
B*
5.9855e-4
RAAN
304.0849°
Arg perigee
281.1431°
Mean anomaly
78.9201°
Rev number
7,935

§ Raw data

STARLINK-327331 62477U 24254R   26145.16737212  .00016254  00000+0  59855-3 0  99922 62477  43.0011 304.0849 0001957 281.1431  78.9201 15.27597649 79353

JSON: /api/v1/satellites/62477 · /tle

For live sub-satellite position, see the globe view (requires WebGL).

§ Visibility from observer

Set your observer location to see the next 7 days of passes ≥ 10°. The values pass through the URL so the page stays shareable.

No JS? Fill the form by hand. The geolocation button needs JavaScript.